| time (UTC) | temp F | wind direction | speed knots | gust knots | rain 1hr in | rain 24hr in | rain mn in | humidity % | barometer mb |
| 20260906174706 | 97 | 168 | 0.0 | 1.7 | 0.00 | 0.00 | 0.00 | 49 | 1014.1 |
| 20260906174200 | 97 | 158 | 0.9 | 1.7 | 0.00 | 0.00 | 0.00 | 47 | 1014.4 |
| 20260906173656 | 97 | 146 | 1.7 | 1.7 | 0.00 | 0.00 | 0.00 | 47 | 1014.4 |
| 20260906173151 | 97 | 157 | 0.0 | 2.6 | 0.00 | 0.00 | 0.00 | 48 | 1014.3 |
| 20260906172650 | 96 | 169 | 0.0 | 0.9 | 0.00 | 0.00 | 0.00 | 52 | 1014.4 |
| 20260906172146 | 96 | 158 | 0.9 | 1.7 | 0.00 | 0.00 | 0.00 | 51 | 1014.5 |
| 20260906171646 | 95 | 142 | 0.0 | 1.7 | 0.00 | 0.00 | 0.00 | 52 | 1014.6 |
| 20260906171141 | 96 | 171 | 2.6 | 2.6 | 0.00 | 0.00 | 0.00 | 50 | 1014.7 |
| 20260906170637 | 96 | 161 | 1.7 | 4.3 | 0.00 | 0.00 | 0.00 | 52 | 1014.8 |
| 20260906170137 | 97 | 169 | 0.0 | 1.7 | 0.00 | 0.00 | 0.00 | 51 | 1014.7 |
| 20260906165633 | 97 | 166 | 1.7 | 4.3 | 0.00 | 0.00 | 0.00 | 51 | 1014.9 |
| 20260906165129 | 96 | 133 | 2.6 | 4.3 | 0.00 | 0.00 | 0.00 | 51 | 1014.8 |
| 20260906164627 | 96 | 163 | 0.9 | 4.3 | 0.00 | 0.00 | 0.00 | 55 | 1015.2 |
| 20260906164123 | 96 | 124 | 0.9 | 1.7 | 0.00 | 0.00 | 0.00 | 52 | 1014.8 |
| 20260906163620 | 96 | 130 | 1.7 | 1.7 | 0.00 | 0.00 | 0.00 | 52 | 1014.8 |
| 20260906163115 | 95 | 167 | 1.7 | 1.7 | 0.00 | 0.00 | 0.00 | 52 | 1014.9 |
| 20260906162612 | 95 | 164 | 0.0 | 0.9 | 0.00 | 0.00 | 0.00 | 58 | 1014.9 |
| 20260906162107 | 96 | 130 | 1.7 | 2.6 | 0.00 | 0.00 | 0.00 | 51 | 1014.9 |
| 20260906161607 | 96 | 13 | 0.9 | 1.7 | 0.00 | 0.00 | 0.00 | 53 | 1015.1 |
| 20260906161105 | 96 | 157 | 0.9 | 1.7 | 0.00 | 0.00 | 0.00 | 52 | 1014.8 |
| 20260906160604 | 95 | 161 | 0.9 | 0.9 | 0.00 | 0.00 | 0.00 | 56 | 1015.0 |
| 20260906160103 | 93 | 165 | 0.0 | 1.7 | 0.00 | 0.00 | 0.00 | 57 | 1014.8 |
| 20260906155601 | 93 | 165 | 0.9 | 1.7 | 0.00 | 0.00 | 0.00 | 55 | 1014.8 |
| 20260906155057 | 93 | 147 | 2.6 | 2.6 | 0.00 | 0.00 | 0.00 | 56 | 1014.7 |
| 20260906154552 | 95 | 174 | 1.7 | 4.3 | 0.00 | 0.00 | 0.00 | 53 | 1014.8 |
| 20260906154051 | 95 | 165 | 0.0 | 1.7 | 0.00 | 0.00 | 0.00 | 56 | 1014.8 |
| 20260906153550 | 95 | 151 | 0.9 | 1.7 | 0.00 | 0.00 | 0.00 | 57 | 1014.8 |
| 20260906153045 | 94 | 107 | 0.9 | 1.7 | 0.00 | 0.00 | 0.00 | 56 | 1014.6 |
| 20260906152545 | 92 | 160 | 0.0 | 1.7 | 0.00 | 0.00 | 0.00 | 59 | 1014.7 |
| 20260906152044 | 91 | 151 | 0.9 | 1.7 | 0.00 | 0.00 | 0.00 | 60 | 1014.9 |
| 20260906151540 | 90 | 144 | 0.9 | 1.7 | 0.00 | 0.00 | 0.00 | 60 | 1014.7 |
| 20260906151036 | 90 | 152 | 2.6 | 2.6 | 0.00 | 0.00 | 0.00 | 60 | 1014.7 |
| 20260906150531 | 89 | 158 | 0.9 | 1.7 | 0.00 | 0.00 | 0.00 | 61 | 1014.8 |
| 20260906150026 | 89 | 162 | 2.6 | 4.3 | 0.00 | 0.00 | 0.00 | 62 | 1015.0 |
| 20260906145525 | 89 | 165 | 0.0 | 1.7 | 0.00 | 0.00 | 0.00 | 64 | 1014.8 |
| 20260906145020 | 88 | 134 | 0.9 | 1.7 | 0.00 | 0.00 | 0.00 | 64 | 1015.0 |
| 20260906144514 | 88 | 51 | 0.9 | 4.3 | 0.00 | 0.00 | 0.00 | 64 | 1015.0 |
| 20260906144009 | 89 | 153 | 0.9 | 1.7 | 0.00 | 0.00 | 0.00 | 63 | 1014.8 |
| 20260906143505 | 88 | 162 | 1.7 | 2.6 | 0.00 | 0.00 | 0.00 | 64 | 1014.9 |
| 20260906143001 | 88 | 117 | 2.6 | 2.6 | 0.00 | 0.00 | 0.00 | 63 | 1014.9 |
| 20260906142500 | 87 | 175 | 1.7 | 4.3 | 0.00 | 0.00 | 0.00 | 65 | 1014.9 |
| 20260906141955 | 87 | 125 | 1.7 | 2.6 | 0.00 | 0.00 | 0.00 | 66 | 1014.7 |
| 20260906141454 | 87 | 141 | 1.7 | 1.7 | 0.00 | 0.00 | 0.00 | 67 | 1014.8 |
| 20260906140950 | 86 | 161 | 0.9 | 2.6 | 0.00 | 0.00 | 0.00 | 67 | 1014.8 |
| 20260906140444 | 86 | 124 | 0.9 | 2.6 | 0.00 | 0.00 | 0.00 | 67 | 1014.7 |
| 20260906135942 | 86 | 161 | 0.9 | 4.3 | 0.00 | 0.00 | 0.00 | 68 | 1014.8 |
| 20260906135441 | 86 | 163 | 1.7 | 1.7 | 0.00 | 0.00 | 0.00 | 67 | 1014.8 |
| 20260906134937 | 84 | 157 | 0.9 | 1.7 | 0.00 | 0.00 | 0.00 | 69 | 1014.7 |
| 20260906134432 | 84 | 103 | 0.9 | 2.6 | 0.00 | 0.00 | 0.00 | 69 | 1014.6 |
| 20260906133927 | 84 | 157 | 0.9 | 2.6 | 0.00 | 0.00 | 0.00 | 69 | 1014.7 |
| 20260906133423 | 84 | 154 | 1.7 | 2.6 | 0.00 | 0.00 | 0.00 | 69 | 1014.6 |
| 20260906132918 | 84 | 117 | 0.9 | 2.6 | 0.00 | 0.00 | 0.00 | 68 | 1014.6 |
| 20260906132414 | 84 | 134 | 0.0 | 2.6 | 0.00 | 0.00 | 0.00 | 70 | 1014.5 |
| 20260906131909 | 83 | 133 | 0.9 | 1.7 | 0.00 | 0.00 | 0.00 | 70 | 1014.5 |
| 20260906131404 | 83 | 159 | 0.9 | 1.7 | 0.00 | 0.00 | 0.00 | 69 | 1014.3 |
| 20260906130900 | 83 | 161 | 0.0 | 0.9 | 0.00 | 0.00 | 0.00 | 70 | 1014.5 |
| 20260906130359 | 83 | 138 | 2.6 | 2.6 | 0.00 | 0.00 | 0.00 | 69 | 1014.4 |
| 20260906125859 | 83 | 154 | 0.0 | 2.6 | 0.00 | 0.00 | 0.00 | 70 | 1014.4 |
| 20260906125355 | 82 | 153 | 0.0 | 0.0 | 0.00 | 0.00 | 0.00 | 72 | 1014.3 |
| 20260906124851 | 81 | 157 | 0.0 | 2.6 | 0.00 | 0.00 | 0.00 | 73 | 1014.3 |
| 20260906124347 | 80 | 159 | 0.0 | 1.7 | 0.00 | 0.00 | 0.00 | 75 | 1014.1 |
| 20260906123846 | 78 | 159 | 0.9 | 1.7 | 0.00 | 0.00 | 0.00 | 77 | 1014.0 |
| 20260906123341 | 78 | 156 | 0.9 | 1.7 | 0.00 | 0.00 | 0.00 | 78 | 1014.0 |
| 20260906122840 | 77 | 161 | 0.9 | 1.7 | 0.00 | 0.00 | 0.00 | 78 | 1014.0 |
| 20260906122335 | 76 | 160 | 0.0 | 0.9 | 0.00 | 0.00 | 0.00 | 79 | 1013.8 |
| 20260906121832 | 76 | 161 | 0.9 | 0.9 | 0.00 | 0.00 | 0.00 | 80 | 1013.6 |
| 20260906121328 | 77 | 164 | 0.0 | 0.9 | 0.00 | 0.00 | 0.00 | 79 | 1013.5 |
| 20260906120824 | 77 | 164 | 0.0 | 0.0 | 0.00 | 0.00 | 0.00 | 79 | 1013.9 |
| 20260906120320 | 77 | 163 | 0.9 | 0.9 | 0.00 | 0.00 | 0.00 | 78 | 1013.7 |
| 20260906115816 | 77 | 161 | 0.9 | 0.9 | 0.00 | 0.00 | 0.00 | 78 | 1013.8 |
| 20260906115311 | 77 | 162 | 0.0 | 0.0 | 0.00 | 0.00 | 0.00 | 79 | 1013.6 |
| 20260906114810 | 77 | 164 | 0.9 | 0.9 | 0.00 | 0.00 | 0.00 | 79 | 1013.9 |
| 20260906114306 | 76 | 165 | 0.9 | 0.9 | 0.00 | 0.00 | 0.00 | 79 | 1013.7 |
| 20260906113806 | 77 | 168 | 0.0 | 1.7 | 0.00 | 0.00 | 0.00 | 78 | 1013.6 |
| 20260906113305 | 76 | 161 | 0.9 | 1.7 | 0.00 | 0.00 | 0.00 | 79 | 1013.6 |
| 20260906112800 | 77 | 160 | 0.9 | 0.9 | 0.00 | 0.00 | 0.00 | 80 | 1013.4 |
| 20260906112257 | 77 | 164 | 0.9 | 1.7 | 0.00 | 0.00 | 0.00 | 78 | 1013.4 |
| 20260906111756 | 77 | 161 | 0.0 | 0.9 | 0.00 | 0.00 | 0.00 | 78 | 1013.6 |
| 20260906111255 | 77 | 161 | 0.0 | 0.0 | 0.00 | 0.00 | 0.00 | 78 | 1013.4 |
| 20260906110751 | 77 | 160 | 0.0 | 0.9 | 0.00 | 0.00 | 0.00 | 78 | 1013.5 |
| 20260906110247 | 77 | 168 | 0.0 | 0.9 | 0.00 | 0.00 | 0.00 | 78 | 1013.3 |
| 20260906105745 | 78 | 161 | 0.9 | 1.7 | 0.00 | 0.00 | 0.00 | 77 | 1013.4 |
| 20260906105241 | 77 | 158 | 0.9 | 1.7 | 0.00 | 0.00 | 0.00 | 78 | 1013.4 |
| 20260906104737 | 77 | 163 | 0.9 | 1.7 | 0.00 | 0.00 | 0.00 | 77 | 1013.6 |
| 20260906104235 | 77 | 162 | 0.9 | 0.9 | 0.00 | 0.00 | 0.00 | 78 | 1013.4 |
| 20260906103733 | 75 | 161 | 1.7 | 1.7 | 0.00 | 0.00 | 0.00 | 80 | 1013.4 |
| 20260906103228 | 75 | 160 | 0.0 | 0.0 | 0.00 | 0.00 | 0.00 | 82 | 1013.3 |
| 20260906102724 | 75 | 160 | 0.0 | 0.0 | 0.00 | 0.00 | 0.00 | 82 | 1013.4 |
| 20260906102223 | 76 | 160 | 0.0 | 0.0 | 0.00 | 0.00 | 0.00 | 82 | 1013.7 |
| 20260906101718 | 76 | 159 | 0.0 | 0.0 | 0.00 | 0.00 | 0.00 | 81 | 1013.3 |
| 20260906101213 | 76 | 159 | 0.0 | 0.0 | 0.00 | 0.00 | 0.00 | 81 | 1013.4 |
| 20260906100708 | 76 | 159 | 0.0 | 0.0 | 0.00 | 0.00 | 0.00 | 81 | 1013.2 |
| 20260906100202 | 77 | 159 | 0.0 | 0.9 | 0.00 | 0.00 | 0.00 | 79 | 1013.3 |
| 20260906095657 | 77 | 161 | 0.0 | 0.0 | 0.00 | 0.00 | 0.00 | 79 | 1013.2 |
| 20260906095153 | 77 | 156 | 0.0 | 0.0 | 0.00 | 0.00 | 0.00 | 79 | 1013.2 |
| 20260906094652 | 77 | 156 | 0.0 | 0.9 | 0.00 | 0.00 | 0.00 | 79 | 1013.4 |
| 20260906094148 | 77 | 159 | 0.0 | 0.0 | 0.00 | 0.00 | 0.00 | 79 | 1013.2 |
| 20260906093644 | 77 | 159 | 0.0 | 0.0 | 0.00 | 0.00 | 0.00 | 79 | 1013.2 |
| 20260906093143 | 78 | 159 | 0.0 | 0.0 | 0.00 | 0.00 | 0.00 | 78 | 1013.2 |
| 20260906092638 | 77 | 160 | 0.9 | 1.7 | 0.00 | 0.00 | 0.00 | 78 | 1013.1 |
| 20260906092138 | 76 | 160 | 0.0 | 2.6 | 0.00 | 0.00 | 0.00 | 79 | 1013.2 |
| 20260906091635 | 76 | 161 | 0.0 | 0.0 | 0.00 | 0.00 | 0.00 | 81 | 1013.3 |
| 20260906091131 | 76 | 158 | 0.0 | 0.9 | 0.00 | 0.00 | 0.00 | 81 | 1013.0 |
| 20260906090627 | 76 | 161 | 0.0 | 0.0 | 0.00 | 0.00 | 0.00 | 82 | 1012.9 |
| 20260906090126 | 76 | 160 | 0.0 | 0.0 | 0.00 | 0.00 | 0.00 | 81 | 1013.1 |
| 20260906085625 | 76 | 160 | 0.0 | 0.0 | 0.00 | 0.00 | 0.00 | 81 | 1012.9 |
| 20260906085120 | 76 | 160 | 0.0 | 0.0 | 0.00 | 0.00 | 0.00 | 80 | 1012.9 |
| 20260906084615 | 76 | 160 | 0.0 | 0.0 | 0.00 | 0.00 | 0.00 | 79 | 1012.8 |
| 20260906084113 | 76 | 160 | 0.0 | 0.0 | 0.00 | 0.00 | 0.00 | 80 | 1012.9 |
| 20260906083609 | 76 | 159 | 0.0 | 0.0 | 0.00 | 0.00 | 0.00 | 80 | 1012.7 |
| 20260906083109 | 76 | 159 | 0.0 | 0.0 | 0.00 | 0.00 | 0.00 | 81 | 1012.9 |
| 20260906082604 | 76 | 159 | 0.0 | 0.0 | 0.00 | 0.00 | 0.00 | 81 | 1012.7 |
| 20260906082100 | 76 | 159 | 0.0 | 0.0 | 0.00 | 0.00 | 0.00 | 80 | 1012.8 |
| 20260906081555 | 76 | 159 | 0.0 | 0.0 | 0.00 | 0.00 | 0.00 | 80 | 1013.0 |
| 20260906081051 | 76 | 159 | 0.0 | 0.0 | 0.00 | 0.00 | 0.00 | 80 | 1012.9 |
| 20260906080548 | 76 | 159 | 0.0 | 0.0 | 0.00 | 0.00 | 0.00 | 80 | 1012.7 |
| 20260906080043 | 77 | 159 | 0.0 | 0.0 | 0.00 | 0.00 | 0.00 | 80 | 1012.8 |
| 20260906075543 | 77 | 159 | 0.0 | 0.0 | 0.00 | 0.00 | 0.00 | 80 | 1012.7 |
| 20260906075038 | 77 | 159 | 0.0 | 0.0 | 0.00 | 0.00 | 0.00 | 79 | 1012.8 |
| 20260906074533 | 77 | 159 | 0.0 | 0.0 | 0.00 | 0.00 | 0.00 | 79 | 1012.9 |
| 20260906074031 | 77 | 159 | 0.0 | 0.0 | 0.00 | 0.00 | 0.00 | 79 | 1012.8 |
| 20260906073526 | 77 | 159 | 0.0 | 0.0 | 0.00 | 0.00 | 0.00 | 79 | 1012.8 |
| 20260906073022 | 77 | 159 | 0.0 | 0.0 | 0.00 | 0.00 | 0.00 | 79 | 1012.9 |
| 20260906072517 | 77 | 159 | 0.0 | 0.0 | 0.00 | 0.00 | 0.00 | 80 | 1013.0 |
| 20260906072014 | 77 | 159 | 0.0 | 0.0 | 0.00 | 0.00 | 0.00 | 79 | 1012.8 |
| 20260906071509 | 77 | 159 | 0.0 | 0.0 | 0.00 | 0.00 | 0.00 | 79 | 1012.8 |
| 20260906071004 | 77 | 159 | 0.0 | 0.0 | 0.00 | 0.00 | 0.00 | 79 | 1012.8 |
| 20260906070500 | 77 | 159 | 0.0 | 0.0 | 0.00 | 0.00 | 0.00 | 79 | 1012.7 |
| 20260906065955 | 77 | 159 | 0.0 | 0.0 | 0.00 | 0.00 | 0.00 | 79 | 1012.7 |
| 20260906065449 | 78 | 159 | 0.0 | 0.0 | 0.00 | 0.00 | 0.00 | 79 | 1013.0 |
| 20260906064945 | 78 | 159 | 0.0 | 0.0 | 0.00 | 0.00 | 0.00 | 78 | 1013.1 |
| 20260906064442 | 78 | 159 | 0.0 | 0.0 | 0.00 | 0.00 | 0.00 | 78 | 1013.2 |
| 20260906063942 | 78 | 159 | 0.0 | 0.0 | 0.00 | 0.00 | 0.00 | 78 | 1013.2 |
| 20260906063437 | 79 | 159 | 0.0 | 0.9 | 0.00 | 0.00 | 0.00 | 77 | 1013.0 |
| 20260906062937 | 79 | 158 | 0.0 | 0.0 | 0.00 | 0.00 | 0.00 | 76 | 1013.2 |
| 20260906062432 | 79 | 157 | 0.0 | 0.0 | 0.00 | 0.00 | 0.00 | 76 | 1013.2 |
| 20260906061927 | 80 | 157 | 0.0 | 0.0 | 0.00 | 0.00 | 0.00 | 75 | 1013.1 |
| 20260906061418 | 80 | 157 | 0.0 | 0.9 | 0.00 | 0.00 | 0.00 | 74 | 1013.2 |
| 20260906060912 | 80 | 161 | 0.9 | 1.7 | 0.00 | 0.00 | 0.00 | 73 | 1013.3 |
| 20260906060410 | 79 | 155 | 0.0 | 0.9 | 0.00 | 0.00 | 0.00 | 74 | 1013.1 |
| 20260906055906 | 80 | 154 | 0.0 | 0.0 | 0.00 | 0.00 | 0.00 | 76 | 1013.1 |
| 20260906055401 | 80 | 158 | 0.0 | 0.0 | 0.00 | 0.00 | 0.00 | 74 | 1013.5 |
| 20260906054856 | 81 | 160 | 0.0 | 0.9 | 0.00 | 0.00 | 0.00 | 72 | 1013.3 |
| 20260906054351 | 80 | 161 | 0.9 | 0.9 | 0.00 | 0.00 | 0.00 | 72 | 1013.2 |
| 20260906053847 | 80 | 157 | 0.0 | 0.9 | 0.00 | 0.00 | 0.00 | 73 | 1013.3 |
| 20260906053343 | 81 | 158 | 0.0 | 0.9 | 0.00 | 0.00 | 0.00 | 73 | 1013.4 |
| 20260906052838 | 82 | 160 | 0.0 | 0.0 | 0.00 | 0.00 | 0.00 | 72 | 1013.5 |
| 20260906052335 | 82 | 162 | 0.9 | 1.7 | 0.00 | 0.00 | 0.00 | 69 | 1013.4 |
| 20260906051831 | 82 | 160 | 0.9 | 0.9 | 0.00 | 0.00 | 0.00 | 68 | 1013.4 |
| 20260906051331 | 82 | 160 | 0.0 | 0.9 | 0.00 | 0.00 | 0.00 | 72 | 1013.2 |
| 20260906050827 | 82 | 163 | 0.9 | 0.9 | 0.00 | 0.00 | 0.00 | 70 | 1013.2 |
| 20260906050322 | 82 | 162 | 0.9 | 0.9 | 0.00 | 0.00 | 0.00 | 72 | 1013.4 |
| 20260906045820 | 82 | 166 | 0.9 | 1.7 | 0.00 | 0.03 | 0.03 | 71 | 1013.3 |
| 20260906045315 | 81 | 158 | 1.7 | 1.7 | 0.00 | 0.03 | 0.03 | 72 | 1013.4 |
| 20260906044811 | 80 | 160 | 0.0 | 0.9 | 0.00 | 0.03 | 0.03 | 74 | 1013.4 |
| 20260906044305 | 80 | 159 | 0.0 | 1.7 | 0.00 | 0.03 | 0.03 | 76 | 1013.1 |
| 20260906043801 | 79 | 158 | 0.0 | 0.0 | 0.00 | 0.03 | 0.03 | 78 | 1013.2 |
| 20260906043257 | 80 | 159 | 0.0 | 0.0 | 0.00 | 0.03 | 0.03 | 77 | 1013.3 |
| 20260906042756 | 80 | 163 | 0.0 | 0.0 | 0.00 | 0.03 | 0.03 | 77 | 1013.3 |
| 20260906042255 | 80 | 164 | 0.0 | 0.0 | 0.00 | 0.03 | 0.03 | 77 | 1013.1 |
| 20260906041751 | 80 | 161 | 0.0 | 0.9 | 0.00 | 0.03 | 0.03 | 76 | 1013.0 |
| 20260906041246 | 80 | 161 | 0.0 | 0.9 | 0.00 | 0.03 | 0.03 | 76 | 1013.1 |
| 20260906040742 | 81 | 161 | 0.0 | 0.0 | 0.00 | 0.03 | 0.03 | 75 | 1013.1 |
| 20260906040237 | 81 | 163 | 0.9 | 0.9 | 0.00 | 0.03 | 0.03 | 73 | 1013.0 |
| 20260906035732 | 82 | 158 | 0.0 | 0.0 | 0.00 | 0.03 | 0.03 | 73 | 1012.9 |
| 20260906035228 | 83 | 158 | 0.0 | 0.0 | 0.00 | 0.03 | 0.03 | 72 | 1013.0 |
| 20260906034727 | 84 | 158 | 0.9 | 0.9 | 0.00 | 0.03 | 0.03 | 68 | 1013.0 |
| 20260906034222 | 83 | 159 | 0.9 | 1.7 | 0.00 | 0.03 | 0.03 | 68 | 1012.9 |
| 20260906033718 | 82 | 162 | 0.9 | 1.7 | 0.00 | 0.03 | 0.03 | 72 | 1012.9 |
| 20260906033218 | 82 | 158 | 0.0 | 0.0 | 0.00 | 0.03 | 0.03 | 75 | 1012.9 |
| 20260906032716 | 82 | 158 | 0.0 | 0.0 | 0.00 | 0.03 | 0.03 | 74 | 1012.7 |
| 20260906032215 | 82 | 156 | 0.9 | 0.9 | 0.00 | 0.03 | 0.03 | 73 | 1012.7 |
| 20260906031710 | 81 | 156 | 0.0 | 0.0 | 0.00 | 0.03 | 0.03 | 72 | 1012.9 |
| 20260906031206 | 81 | 156 | 0.0 | 0.0 | 0.00 | 0.03 | 0.03 | 74 | 1012.7 |
| 20260906030705 | 82 | 156 | 0.0 | 0.0 | 0.00 | 0.03 | 0.03 | 74 | 1012.8 |
| 20260906030201 | 82 | 156 | 0.0 | 0.0 | 0.00 | 0.03 | 0.03 | 74 | 1012.8 |
| 20260906025700 | 82 | 156 | 0.0 | 0.0 | 0.00 | 0.03 | 0.03 | 73 | 1012.5 |
| 20260906025159 | 82 | 156 | 0.0 | 0.0 | 0.00 | 0.03 | 0.03 | 73 | 1012.4 |
| 20260906024654 | 83 | 156 | 0.0 | 0.0 | 0.00 | 0.03 | 0.03 | 72 | 1012.5 |
| 20260906024153 | 83 | 156 | 0.0 | 0.0 | 0.00 | 0.03 | 0.03 | 71 | 1012.1 |
| 20260906023649 | 83 | 156 | 0.0 | 0.0 | 0.00 | 0.03 | 0.03 | 71 | 1012.4 |
| 20260906023149 | 83 | 156 | 0.0 | 0.0 | 0.00 | 0.03 | 0.03 | 69 | 1012.1 |
| 20260906022644 | 84 | 156 | 0.0 | 0.0 | 0.00 | 0.03 | 0.03 | 70 | 1012.0 |
| 20260906022140 | 84 | 156 | 0.0 | 0.0 | 0.00 | 0.03 | 0.03 | 71 | 1011.9 |
| 20260906021636 | 84 | 156 | 0.9 | 0.9 | 0.00 | 0.03 | 0.03 | 70 | 1012.1 |
| 20260906021135 | 84 | 159 | 0.0 | 0.0 | 0.00 | 0.03 | 0.03 | 69 | 1011.9 |
| 20260906020634 | 84 | 159 | 0.0 | 0.0 | 0.00 | 0.03 | 0.03 | 69 | 1011.9 |
| 20260906020129 | 85 | 159 | 0.0 | 0.0 | 0.00 | 0.03 | 0.03 | 68 | 1011.7 |
| 20260906015624 | 85 | 159 | 0.0 | 0.0 | 0.00 | 0.03 | 0.03 | 68 | 1011.7 |
| 20260906015123 | 85 | 159 | 0.0 | 0.0 | 0.00 | 0.03 | 0.03 | 67 | 1011.7 |
| 20260906014623 | 85 | 159 | 0.0 | 0.0 | 0.00 | 0.03 | 0.03 | 67 | 1011.4 |
| 20260906014119 | 86 | 159 | 0.0 | 0.0 | 0.00 | 0.03 | 0.03 | 66 | 1011.7 |
| 20260906013614 | 86 | 160 | 0.0 | 0.0 | 0.00 | 0.03 | 0.03 | 65 | 1011.5 |
| 20260906013109 | 86 | 160 | 0.0 | 0.0 | 0.00 | 0.03 | 0.03 | 65 | 1011.5 |
| 20260906012605 | 86 | 160 | 0.0 | 0.0 | 0.00 | 0.03 | 0.03 | 65 | 1011.2 |
| 20260906012104 | 86 | 160 | 0.9 | 0.9 | 0.00 | 0.03 | 0.03 | 64 | 1011.2 |
| 20260906011601 | 86 | 160 | 0.0 | 0.9 | 0.00 | 0.03 | 0.03 | 65 | 1011.3 |
| 20260906011101 | 86 | 160 | 0.0 | 0.9 | 0.00 | 0.03 | 0.03 | 65 | 1011.4 |
| 20260906010556 | 86 | 160 | 0.0 | 0.0 | 0.00 | 0.03 | 0.03 | 67 | 1011.5 |
| 20260906010052 | 86 | 160 | 0.0 | 0.0 | 0.00 | 0.03 | 0.03 | 66 | 1011.3 |
| 20260906005551 | 86 | 160 | 0.0 | 0.0 | 0.00 | 0.03 | 0.03 | 66 | 1011.3 |
| 20260906005050 | 86 | 160 | 0.0 | 0.0 | 0.00 | 0.03 | 0.03 | 64 | 1011.3 |
| 20260906004550 | 87 | 160 | 0.0 | 0.0 | 0.00 | 0.03 | 0.03 | 65 | 1011.0 |
| 20260906004045 | 87 | 160 | 0.0 | 0.0 | 0.00 | 0.03 | 0.03 | 65 | 1011.3 |
| 20260906003540 | 88 | 160 | 0.0 | 0.9 | 0.00 | 0.03 | 0.03 | 64 | 1011.0 |
| 20260906003037 | 88 | 160 | 0.0 | 0.0 | 0.00 | 0.03 | 0.03 | 63 | 1011.2 |
| 20260906002537 | 88 | 160 | 0.0 | 0.0 | 0.00 | 0.03 | 0.03 | 62 | 1011.2 |
| 20260906002031 | 88 | 160 | 0.0 | 0.9 | 0.00 | 0.03 | 0.03 | 61 | 1011.1 |
| 20260906001527 | 89 | 160 | 0.0 | 0.9 | 0.00 | 0.03 | 0.03 | 61 | 1011.3 |
| 20260906001021 | 89 | 161 | 0.0 | 0.9 | 0.00 | 0.03 | 0.03 | 59 | 1011.2 |
| 20260906000517 | 90 | 160 | 0.0 | 0.0 | 0.00 | 0.03 | 0.03 | 59 | 1011.1 |
| 20260906000012 | 91 | 161 | 0.0 | 0.9 | 0.00 | 0.03 | 0.03 | 58 | 1011.4 |
| 20260905235511 | 92 | 166 | 0.0 | 0.0 | 0.00 | 0.03 | 0.03 | 57 | 1011.3 |
| 20260905235007 | 93 | 171 | 0.0 | 1.7 | 0.00 | 0.03 | 0.03 | 54 | 1011.4 |
| 20260905234503 | 94 | 168 | 0.0 | 0.9 | 0.00 | 0.03 | 0.03 | 53 | 1011.2 |
| 20260905234002 | 95 | 172 | 1.7 | 4.3 | 0.00 | 0.03 | 0.03 | 50 | 1011.2 |
| 20260905233458 | 96 | 176 | 0.0 | 0.9 | 0.00 | 0.03 | 0.03 | 49 | 1011.1 |
| 20260905232956 | 96 | 156 | 0.9 | 1.7 | 0.00 | 0.03 | 0.03 | 50 | 1011.3 |
| 20260905232453 | 97 | 171 | 0.9 | 1.7 | 0.00 | 0.03 | 0.03 | 47 | 1011.1 |
| 20260905231948 | 97 | 181 | 0.0 | 0.9 | 0.00 | 0.03 | 0.03 | 48 | 1011.1 |
| 20260905231444 | 97 | 158 | 0.9 | 1.7 | 0.00 | 0.03 | 0.03 | 47 | 1010.8 |
| 20260905230940 | 96 | 166 | 0.0 | 0.9 | 0.00 | 0.03 | 0.03 | 48 | 1011.1 |
| 20260905230438 | 96 | 172 | 0.9 | 0.9 | 0.00 | 0.03 | 0.03 | 46 | 1011.0 |
| 20260905225937 | 96 | 144 | 1.7 | 2.6 | 0.00 | 0.03 | 0.03 | 47 | 1011.2 |
| 20260905225432 | 96 | 128 | 0.9 | 0.9 | 0.00 | 0.03 | 0.03 | 47 | 1011.1 |
| 20260905224927 | 96 | 134 | 0.0 | 0.9 | 0.00 | 0.03 | 0.03 | 47 | 1011.0 |
| 20260905224423 | 96 | 170 | 0.9 | 1.7 | 0.00 | 0.03 | 0.03 | 46 | 1011.0 |
| 20260905223922 | 97 | 157 | 0.9 | 2.6 | 0.00 | 0.03 | 0.03 | 47 | 1011.3 |
| 20260905223421 | 97 | 157 | 0.9 | 4.3 | 0.00 | 0.03 | 0.03 | 46 | 1010.9 |
| 20260905222921 | 96 | 157 | 2.6 | 4.3 | 0.00 | 0.03 | 0.03 | 45 | 1011.1 |
| 20260905222420 | 96 | 166 | 2.6 | 5.2 | 0.00 | 0.03 | 0.03 | 47 | 1010.9 |
| 20260905221916 | 95 | 148 | 1.7 | 2.6 | 0.00 | 0.03 | 0.03 | 47 | 1011.1 |
| 20260905221412 | 95 | 148 | 0.9 | 1.7 | 0.00 | 0.03 | 0.03 | 49 | 1011.3 |
| 20260905220903 | 95 | 172 | 0.0 | 2.6 | 0.00 | 0.03 | 0.03 | 49 | 1011.1 |
| 20260905220359 | 97 | 159 | 1.7 | 1.7 | 0.00 | 0.03 | 0.03 | 44 | 1011.0 |
| 20260905215857 | 97 | 153 | 0.9 | 5.2 | 0.00 | 0.03 | 0.03 | 45 | 1011.3 |
| 20260905215353 | 98 | 196 | 0.9 | 1.7 | 0.00 | 0.03 | 0.03 | 43 | 1011.4 |
| 20260905214849 | 97 | 172 | 0.0 | 1.7 | 0.00 | 0.03 | 0.03 | 43 | 1011.2 |
| 20260905214344 | 101 | 162 | 0.9 | 2.6 | 0.00 | 0.03 | 0.03 | 40 | 1011.5 |
| 20260905213839 | 101 | 142 | 2.6 | 4.3 | 0.00 | 0.03 | 0.03 | 37 | 1011.4 |
| 20260905213336 | 102 | 72 | 2.6 | 4.3 | 0.00 | 0.03 | 0.03 | 36 | 1011.5 |
| 20260905212835 | 101 | 216 | 0.9 | 1.7 | 0.00 | 0.03 | 0.03 | 37 | 1011.6 |
| 20260905212330 | 101 | 169 | 2.6 | 2.6 | 0.00 | 0.03 | 0.03 | 35 | 1011.7 |
| 20260905211830 | 101 | 42 | 2.6 | 4.3 | 0.00 | 0.03 | 0.03 | 39 | 1011.7 |
| 20260905211325 | 100 | 195 | 0.0 | 1.7 | 0.00 | 0.03 | 0.03 | 37 | 1011.7 |
| 20260905210822 | 100 | 71 | 2.6 | 2.6 | 0.00 | 0.03 | 0.03 | 38 | 1011.8 |
| 20260905210321 | 100 | 348 | 3.5 | 5.2 | 0.00 | 0.03 | 0.03 | 38 | 1011.7 |
| 20260905205820 | 98 | 182 | 0.9 | 1.7 | 0.00 | 0.03 | 0.03 | 39 | 1011.8 |
| 20260905205315 | 98 | 98 | 1.7 | 1.7 | 0.00 | 0.03 | 0.03 | 40 | 1011.9 |
| 20260905204814 | 97 | 173 | 0.0 | 0.0 | 0.00 | 0.03 | 0.03 | 45 | 1012.0 |
| 20260905204311 | 98 | 168 | 0.9 | 0.9 | 0.00 | 0.03 | 0.03 | 40 | 1012.0 |
| 20260905203809 | 100 | 134 | 1.7 | 2.6 | 0.00 | 0.03 | 0.03 | 42 | 1012.3 |
| 20260905203305 | 98 | 182 | 0.0 | 1.7 | 0.00 | 0.03 | 0.03 | 39 | 1012.3 |
| 20260905202801 | 97 | 197 | 1.7 | 1.7 | 0.00 | 0.03 | 0.03 | 43 | 1012.5 |
| 20260905202255 | 96 | 185 | 0.9 | 1.7 | 0.00 | 0.03 | 0.03 | 41 | 1012.3 |
| 20260905201751 | 96 | 175 | 0.0 | 0.9 | 0.00 | 0.03 | 0.03 | 43 | 1012.6 |
| 20260905201246 | 96 | 170 | 0.0 | 0.0 | 0.00 | 0.03 | 0.03 | 48 | 1012.4 |
| 20260905200741 | 97 | 163 | 0.0 | 0.0 | 0.00 | 0.03 | 0.03 | 44 | 1012.6 |
| 20260905200237 | 97 | 177 | 0.0 | 1.7 | 0.00 | 0.03 | 0.03 | 42 | 1012.7 |
| 20260905195734 | 97 | 176 | 0.0 | 0.9 | 0.00 | 0.03 | 0.03 | 40 | 1012.6 |
| 20260905195229 | 97 | 190 | 0.9 | 4.3 | 0.00 | 0.03 | 0.03 | 41 | 1012.6 |
| 20260905194726 | 98 | 121 | 1.7 | 2.6 | 0.00 | 0.03 | 0.03 | 41 | 1012.9 |
| 20260905194225 | 98 | 166 | 1.7 | 2.6 | 0.00 | 0.03 | 0.03 | 40 | 1012.8 |
| 20260905193725 | 98 | 184 | 2.6 | 4.3 | 0.00 | 0.03 | 0.03 | 42 | 1012.9 |
| 20260905193220 | 99 | 165 | 0.0 | 1.7 | 0.00 | 0.03 | 0.03 | 41 | 1012.8 |
| 20260905192715 | 98 | 179 | 0.9 | 1.7 | 0.00 | 0.03 | 0.03 | 39 | 1012.7 |
| 20260905192212 | 98 | 161 | 0.9 | 2.6 | 0.00 | 0.03 | 0.03 | 41 | 1012.9 |
| 20260905191711 | 97 | 178 | 0.9 | 0.9 | 0.00 | 0.03 | 0.03 | 42 | 1013.0 |
| 20260905191209 | 98 | 170 | 0.0 | 4.3 | 0.00 | 0.03 | 0.03 | 41 | 1013.0 |
| 20260905190708 | 98 | 189 | 0.9 | 4.3 | 0.00 | 0.03 | 0.03 | 41 | 1013.3 |
| 20260905190207 | 99 | 131 | 0.0 | 0.9 | 0.00 | 0.03 | 0.03 | 43 | 1013.2 |
| 20260905185706 | 99 | 167 | 0.0 | 0.9 | 0.00 | 0.03 | 0.03 | 42 | 1013.3 |
| 20260905185206 | 98 | 175 | 0.0 | 1.7 | 0.00 | 0.03 | 0.03 | 45 | 1013.2 |
| 20260905184701 | 98 | 142 | 0.9 | 1.7 | 0.00 | 0.03 | 0.03 | 41 | 1013.4 |
| 20260905184200 | 98 | 178 | 0.0 | 0.9 | 0.00 | 0.03 | 0.03 | 42 | 1013.3 |
| 20260905183700 | 96 | 173 | 0.0 | 0.0 | 0.00 | 0.03 | 0.03 | 45 | 1013.4 |
| 20260905183155 | 95 | 173 | 0.0 | 0.0 | 0.00 | 0.03 | 0.03 | 46 | 1013.4 |
| 20260905182654 | 95 | 176 | 0.0 | 0.9 | 0.00 | 0.03 | 0.03 | 45 | 1013.6 |
| 20260905182154 | 96 | 217 | 2.6 | 2.6 | 0.00 | 0.03 | 0.03 | 44 | 1013.8 |
| 20260905181650 | 95 | 173 | 0.9 | 0.9 | 0.00 | 0.03 | 0.03 | 45 | 1013.7 |
| 20260905181149 | 96 | 197 | 0.9 | 1.7 | 0.00 | 0.03 | 0.03 | 45 | 1013.8 |
| 20260905180643 | 96 | 172 | 0.0 | 1.7 | 0.00 | 0.03 | 0.03 | 46 | 1013.9 |
| 20260905180139 | 98 | 183 | 0.9 | 2.6 | 0.00 | 0.03 | 0.03 | 42 | 1014.0 |
| 20260905175637 | 99 | 170 | 0.9 | 0.9 | 0.00 | 0.03 | 0.03 | 43 | 1013.9 |